Terug naar catalogus

STARLINK-32482

ActiefCommunicatieVLEO
NORAD 62141·PAYLOAD·🇺🇸 United States

Gelanceerd Nov 30, 2024 vanaf Cape Canaveral Space Force Station

Loading…

Volgende Passages (komende 24 uur)

TLE

VersSource: CelesTrak SupGP

Epoch: Sep 14, 2026, 22:57 UTC

1 62141C 24224C   26257.95673611 -.00049044  00000+0 -17763-2 0  2573
2 62141  43.0006 169.0364 0001323 265.7809 256.7543 15.27603781    17

Volg STARLINK-32482 in realtime met AllMySat

Download on the App Store